Location: Kelshall
(52.0000°N, 0.0500°W)
Time: 22:07:48
(UTC+00:00)

ATLAS 2AS CENTAUR R/B - Pass Details

Date: 24 January 2021
Orbit: 947 x 1265 km, 63.7° (Epoch: 13 February)

Event Time Altitude Azimuth Distance (km) Brightness Sun altitude
Rises 20:45:53 0° 302° (WNW) 4,198 6.7 -38.2°
Reaches altitude 10° 20:48:59 10° 310° (NW) 3,203 5.8 -38.6°
Enters shadow 20:54:21 35° 348° (NNW) 1,830 4.0 -39.4°
